This demonstration page uses our WeatherBlox Daily Observations layout. Learn more.

Left ArrowRight Arrow

Hourly Observations for March 16, 2015

Temp ( °F °C ) Dew Point ( °F °C ) Humidity (%) Winds ( mph kmh ) Pressure ( in mb ) Visibility ( mi km ) Precip ( " mm )
12:53 am 00:53 undefined 48 8.9 42 5.6 80 80 WNW 10 17 29.82 1010 10 16 N/A
1:53 am 01:53 Mostly Clear with Light Rain 40 4.4 37 2.8 89 89 NNE 18 30 29.92 1013 10 16 N/A
2:53 am 02:53 Mostly Clear with Light Rain 37 2.8 34 1.1 89 89 NNE 14 22 30.04 1017 10 16 0.04 1.02
3:36 am 03:36 Partly Cloudy with Isolated Snow Showers 34 1 32 undefined 93 93 NE 15 24 30.15 1021 2 3 N/A
3:53 am 03:53 Partly Cloudy with Isolated Snow Showers 33 0.6 31 -0.6 92 92 NE 18 30 30.09 1019 3 5 0.05 1.27
4:53 am 04:53 Partly Cloudy with Isolated Snow Showers 32 undefined 30 -1.1 92 92 ENE 21 33 30.13 1020 8 13 N/A
5:12 am 05:12 Partly Cloudy with Isolated Snow Showers 32 undefined 30 -1 93 93 NE 15 24 30.21 1023 3 4 N/A
5:26 am 05:26 Partly Cloudy with Isolated Snow Showers 32 undefined 28 -2 87 87 NE 20 31 30.21 1023 5 8 N/A
5:53 am 05:53 undefined 31 -0.6 29 -1.7 92 92 NE 15 24 30.21 1023 7 11 0.01 0.25
6:34 am 06:34 Partly Cloudy with Isolated Snow Showers 30 -1 28 -2 93 93 ENE 16 26 30.33 1027 2 3 N/A
6:53 am 06:53 Partly Cloudy with Isolated Snow Showers 31 -0.6 29 -1.7 92 92 NE 14 22 30.28 1025 3 5 N/A
7:53 am 07:53 Partly Cloudy with Isolated Snow Showers 31 -0.6 29 -1.7 92 92 ENE 12 19 30.34 1028 5 8 N/A
8:53 am 08:53 Partly Cloudy with Isolated Snow Showers 31 -0.6 29 -1.7 92 92 ENE 10 17 30.39 1029 3 4 N/A
9:01 am 09:01 Partly Cloudy with Isolated Snow Showers 31 -0.6 29 -1.7 92 92 E 8 13 30.45 1031 3 5 N/A
9:53 am 09:53 undefined 31 -0.6 29 -1.7 92 92 NE 7 11 30.44 1031 10 16 N/A
10:53 am 10:53 undefined 33 0.6 29 -1.7 85 85 NE 7 11 30.47 1032 10 16 N/A
11:53 am 11:53 undefined 35 1.7 30 -1.1 82 82 ENE 9 15 30.48 1032 10 16 N/A
12:53 pm 12:53 undefined 36 2.2 29 -1.7 76 76 E 12 19 30.50 1033 10 16 N/A
1:53 pm 13:53 undefined 37 2.8 28 -2.2 70 70 E 9 15 30.52 1034 10 16 N/A
2:53 pm 14:53 undefined 41 5 27 -2.8 57 57 VRB 7 11 30.51 1033 10 16 N/A
3:53 pm 15:53 undefined 41 5 26 -3.3 55 55 ENE 6 9 30.53 1034 10 16 N/A
4:53 pm 16:53 undefined 41 5 26 -3.3 55 55 E 9 15 30.53 1034 10 16 N/A
5:53 pm 17:53 undefined 40 4.4 27 -2.8 60 60 E 8 13 30.54 1034 10 16 N/A
6:53 pm 18:53 undefined 39 3.9 27 -2.8 62 62 SE 8 13 30.54 1034 10 16 N/A
7:53 pm 19:53 undefined 35 1.7 27 -2.8 72 72 ESE 5 7 30.55 1034 10 16 N/A
8:53 pm 20:53 undefined 32 undefined 27 -2.8 82 82 SE 6 9 30.56 1035 10 16 N/A
9:53 pm 21:53 undefined 31 -0.6 26 -3.3 82 82 ESE 8 13 30.55 1035 10 16 N/A
10:53 pm 22:53 undefined 31 -0.6 26 -3.3 82 82 E 9 15 30.54 1034 10 16 N/A
11:53 pm 23:53 undefined 30 -1.1 25 -3.9 82 82 ENE 8 13 30.54 1034 10 16 N/A

Powered by AerisWeather